[TLELIST] Archives

 

[list_settings.list_name] Current TLEs

March 27th 2021 PST

HST 1 20580U 90037B 21085.81986573 .00000867 00000-0 41606-4 0 9999 2 20580 28.4693 251.8250 0002496 252.8706 239.6261 15.09596201498584 ISS (ZARYA) 1 25544U 98067A 21086.36829536 .00002130 00000-0 46889-4 0 9994 2 25544 51.6459 27.4017 0003029 150.6075 357.1610 15.48951886275913 CXO 1 25867U 99040B 21088.77901970 .00000896 00000-0 00000+0 0 9991 2 25867 56.9027 258.2166 8195147 226.3802 0.6903 0.37813003 21272 ____________________________________________________________________ These 2-Line ...Continue Reading

[list_settings.list_name] Current TLEs

March 26th 2021 PST

HST 1 20580U 90037B 21084.80753434 .00000838 00000-0 39858-4 0 9999 2 20580 28.4694 258.5228 0002510 241.1576 138.8738 15.09594727498442 ISS (ZARYA) 1 25544U 98067A 21085.38206113 .00001454 00000-0 34610-4 0 9992 2 25544 51.6460 32.2811 0003018 147.5404 257.1374 15.48944521275767 CXO 1 25867U 99040B 21086.13174330 .00000988 00000-0 00000-0 0 9994 2 25867 56.9988 258.3658 8193593 226.3463 0.3744 0.37812761 10123 ____________________________________________________________________ These 2-Line ...Continue Reading

[list_settings.list_name] Current TLEs

March 25th 2021 PST

HST 1 20580U 90037B 21083.90500927 .00000793 00000-0 37125-4 0 9991 2 20580 28.4695 264.4941 0002530 230.7847 274.7155 15.09593319498470 ISS (ZARYA) 1 25544U 98067A 21084.36632374 .00001143 00000-0 28969-4 0 9996 2 25544 51.6454 37.3057 0003197 146.7460 350.2424 15.48939014275604 CXO 1 25867U 99040B 21086.13174330 .00000988 00000-0 00000-0 0 9994 2 25867 56.9988 258.3658 8193593 226.3463 0.3744 0.37812761 10123 ____________________________________________________________________ These 2-Line ...Continue Reading

[list_settings.list_name] Current TLEs

March 24th 2021 PST

HST 1 20580U 90037B 21082.91328020 .00000813 00000-0 38330-4 0 9995 2 20580 28.4695 271.0555 0002559 219.4336 285.7977 15.09592254498159 ISS (ZARYA) 1 25544U 98067A 21083.40091591 .00001659 00000-0 38356-4 0 9993 2 25544 51.6456 42.0801 0003364 143.4789 6.6783 15.48937780275451 CXO 1 25867U 99040B 21083.48662076 .00000962 00000-0 00000+0 0 9999 2 25867 57.0683 258.4831 8189354 226.3164 0.3869 0.37806874 21251 ____________________________________________________________________ These 2-Line ...Continue Reading

[list_settings.list_name] Current TLEs

March 23rd 2021 PST

HST 1 20580U 90037B 21081.92082417 .00000829 00000-0 39259-4 0 9990 2 20580 28.4695 277.6220 0002588 208.1910 292.8172 15.09591232498000 ISS (ZARYA) 1 25544U 98067A 21082.48915716 .00002424 00000-0 52266-4 0 9991 2 25544 51.6456 46.5889 0003438 141.2753 321.4165 15.48937295275313 CXO 1 25867U 99040B 21083.48662076 .00000962 00000-0 00000+0 0 9999 2 25867 57.0683 258.4831 8189354 226.3164 0.3869 0.37806874 21251 ____________________________________________________________________ These 2-Line ...Continue Reading

[list_settings.list_name] Current TLEs

March 22nd 2021 PST

HST 1 20580U 90037B 21081.15556713 .00000783 00000-0 36512-4 0 9998 2 20580 28.4695 282.6851 0002614 199.7705 94.1841 15.09590128498057 ISS (ZARYA) 1 25544U 98067A 21081.33506943 -.00226657 00000-0 -42398-2 0 9993 2 25544 51.6367 52.3046 0002747 116.5798 26.4742 15.48906498275134 CXO 1 25867U 99040B 21083.48662076 .00000962 00000-0 00000+0 0 9999 2 25867 57.0683 258.4831 8189354 226.3164 0.3869 0.37806874 21251 ____________________________________________________________________ These 2-Line ...Continue Reading

[list_settings.list_name] Current TLEs

March 21st 2021 PST

HST 1 20580U 90037B 21079.86815909 .00000699 00000-0 31402-4 0 9997 2 20580 28.4697 291.2029 0002674 185.8580 297.7799 15.09588305497691 ISS (ZARYA) 1 25544U 98067A 21080.33788414 .00004738 00000-0 94343-4 0 9998 2 25544 51.6450 57.2307 0003602 133.9393 205.0145 15.48928807274977 CXO 1 25867U 99040B 21080.84185142 .00000858 00000-0 00000-0 0 9995 2 25867 57.1161 258.5716 8184775 226.3027 0.4122 0.37805244 10112 ____________________________________________________________________ These 2-Line ...Continue Reading

[list_settings.list_name] Current TLEs

March 20th 2021 PST

HST 1 20580U 90037B 21078.94349455 .00000601 00000-0 25448-4 0 9999 2 20580 28.4699 297.3205 0002715 176.0712 312.5002 15.09586850497552 ISS (ZARYA) 1 25544U 98067A 21079.46538490 .00000512 00000-0 17513-4 0 9997 2 25544 51.6451 61.5427 0003501 130.1896 20.3897 15.48917501274841 CXO 1 25867U 99040B 21080.84185142 .00000858 00000-0 00000-0 0 9995 2 25867 57.1161 258.5716 8184775 226.3027 0.4122 0.37805244 10112 ____________________________________________________________________ These 2-Line ...Continue Reading

[list_settings.list_name] Current TLEs

March 19th 2021 PST

HST 1 20580U 90037B 21077.95105123 .00000602 00000-0 25491-4 0 9990 2 20580 28.4701 303.8865 0002749 165.5380 318.8968 15.09585921497404 ISS (ZARYA) 1 25544U 98067A 21078.43452534 .00000648 00000-0 19971-4 0 9997 2 25544 51.6446 66.6411 0003392 126.4969 32.1181 15.48916434274684 CXO 1 25867U 99040B 21080.84063020 .00000858 00000-0 00000+0 0 9994 2 25867 57.1161 258.5716 8184780 226.3028 0.2455 0.37804843 21246 ____________________________________________________________________ These 2-Line ...Continue Reading

[list_settings.list_name] Current TLEs

March 18th 2021 PST

HST 1 20580U 90037B 21077.02879120 .00000647 00000-0 28220-4 0 9995 2 20580 28.4702 309.9882 0002778 155.8415 346.6278 15.09585260497436 ISS (ZARYA) 1 25544U 98067A 21077.40027963 .00000347 00000-0 14510-4 0 9997 2 25544 51.6454 71.7595 0003427 126.1590 21.5955 15.48913539274526 CXO 1 25867U 99040B 21078.19762416 .00000748 00000-0 00000+0 0 9992 2 25867 57.1667 258.6575 8179965 226.2939 0.4827 0.37805355 21233 ____________________________________________________________________ These 2-Line ...Continue Reading
  • This mailing list is a public mailing list - anyone may join or leave, at any time.
  • This mailing list is announce-only.

International Space Station (ISS) / Hubble Space Telescope (HST) / Chandra X-Ray Observatory Orbital Data via EMAIL

Privacy Policy:

Private list